Temp
22 23 22 21 19 18 20 21 21 24 25 25 26 24 23 23 23 22 20 20 20 19 19 20 20 20 20 20 20 20 20 20 20 19 19 19 18 19 19 19 20 20 19 19 19 19 19 19 19
22 22 23 20 18 19 18 20 20 26 25 25 25 25 24 22 21 19 18 20 21 20 19 19 20 20 20 20 20 20 20 20 20 19 19 19 19 19 20 20 19 19 19 19 19 18 18 19 19
22 23 20 17 18 18 19 22 24 26 26 26 26 25 24 20 20 20 20 20 20 20 19 19 20 20 20 20 20 20 20 20 19 19 19 19 19 20 20 20 19 19 19 19 18 18 19 18 18
22 22 19 18 20 20 19 21 23 26 27 26 25 22 23 23 21 21 21 20 20 20 20 19 20 19 19 19 20 20 20 20 20 19 19 19 19 19 19 19 19 18 18 18 18 17 18 18 18
23 21 18 20 20 20 20 21 22 27 26 24 24 21 21 22 22 21 20 20 20 20 19 19 19 19 19 19 19 19 20 19 19 19 19 19 19 19 19 19 18 18 18 18 18 18 18 17 17
22 22 20 21 20 23 23 21 20 24 24 24 23 22 21 20 22 20 20 20 20 20 19 19 19 19 19 19 19 19 19 19 18 19 18 18 18 18 18 18 18 18 18 18 18 18 17 17 17
23 20 22 22 24 24 25 23 22 24 24 24 23 20 20 19 20 20 20 20 20 20 20 19 18 18 19 18 18 18 18 18 18 18 18 18 18 18 18 18 18 18 18 18 18 18 17 17 17
23 20 23 22 24 25 29 30 27 25 24 23 24 20 20 20 19 20 20 20 20 20 20 19 18 18 18 18 18 18 18 18 18 18 18 18 18 18 18 18 17 18 18 18 18 18 18 18 17
24 20 21 23 25 27 29 29 27 25 23 23 22 23 21 20 20 20 19 19 19 19 19 19 18 18 18 18 18 18 18 18 17 17 18 17 17 17 17 17 18 18 18 18 18 18 19 18 17
23 20 23 24 25 29 29 27 27 25 22 20 21 22 21 20 20 20 20 20 19 19 19 19 18 18 18 18 18 18 17 17 17 17 17 17 17 17 17 17 18 18 18 17 18 18 18 18 18
23 23 25 27 29 30 27 26 28 24 22 22 23 22 21 21 20 20 20 21 21 20 19 19 19 19 18 18 18 18 17 17 17 17 17 17 17 17 18 18 18 19 19 19 18 18 18 17 18
26 26 29 30 31 31 30 30 27 27 27 27 26 24 21 20 20 20 20 20 19 19 20 19 19 19 18 18 18 18 18 17 17 17 17 17 17 18 18 18 18 18 18 18 18 19 18 18 18
28 30 30 30 31 31 30 28 29 27 28 26 24 23 21 21 20 21 21 21 20 20 20 19 19 18 18 18 18 18 18 18 17 17 17 17 17 18 18 18 18 19 19 19 19 19 19 18 18
30 30 29 30 31 30 29 28 28 24 26 25 24 23 22 21 21 21 21 21 19 20 20 19 19 18 17 18 18 18 17 18 17 17 17 17 17 18 18 18 18 19 19 19 19 19 19 18 19
30 29 27 28 29 29 29 25 22 24 24 22 21 22 21 21 22 21 21 21 20 20 20 19 18 18 18 18 18 18 18 18 18 18 18 18 18 18 18 18 18 19 19 18 18 19 19 19 19
28 26 25 27 28 29 28 23 23 25 23 21 21 20 20 21 22 22 22 21 21 20 20 20 19 19 18 18 18 18 18 18 18 18 18 18 18 18 18 18 18 19 18 18 19 19 19 19 19
24 24 26 26 28 29 27 23 21 25 21 17 18 19 20 21 22 22 22 21 21 20 20 20 19 19 19 18 18 18 18 18 18 17 17 18 18 18 18 19 18 18 18 18 19 20 19 19 19
24 25 26 26 28 25 23 22 20 20 20 17 18 19 19 18 19 22 22 22 21 21 20 20 20 19 19 19 18 18 18 18 18 17 17 17 18 18 18 19 19 18 18 19 19 20 19 19 19
25 26 26 28 28 25 24 22 20 20 19 18 19 19 21 20 19 21 21 22 21 21 20 20 20 20 19 19 18 18 18 18 18 17 17 17 17 18 18 18 19 18 19 19 19 19 19 19 20
26 27 26 28 27 26 24 22 21 21 19 22 21 19 22 20 20 20 21 22 22 21 21 20 20 20 19 19 18 18 18 18 17 17 17 17 18 18 18 19 19 18 19 19 19 19 19 19 20
27 26 26 27 26 25 24 23 21 19 18 20 21 20 22 21 21 21 21 22 22 21 21 20 20 20 20 19 18 18 18 17 17 17 17 17 17 18 18 18 18 18 19 19 19 19 19 19 20
26 28 30 28 24 24 22 22 22 19 18 19 21 20 22 23 22 21 21 21 22 22 21 21 21 20 19 19 19 18 19 18 18 18 18 18 17 18 18 18 18 18 18 19 19 19 19 19 19
28 29 28 24 20 21 20 20 20 21 23 20 20 21 22 23 22 22 22 22 23 22 22 21 21 20 19 19 19 19 18 18 18 18 17 18 18 18 18 18 18 18 18 19 19 19 19 19 20
30 30 24 22 20 19 20 19 19 22 24 23 20 22 23 23 23 23 23 23 23 23 22 22 21 20 19 19 19 19 19 18 18 17 17 18 18 18 18 19 18 19 19 19 19 19 19 19 19
29 22 21 23 22 20 18 19 19 21 23 25 21 23 24 24 24 24 23 23 24 23 23 22 21 20 20 20 20 19 19 18 18 18 18 18 18 18 18 19 19 19 19 19 19 19 19 19 19
27 23 21 24 21 19 20 19 19 21 23 26 27 27 24 24 24 24 24 25 25 24 24 23 22 21 21 21 21 20 19 18 18 18 17 18 18 19 19 19 19 19 19 19 19 19 19 19 19
27 26 24 21 21 19 18 18 19 20 22 23 25 24 24 24 23 24 24 25 24 24 25 23 23 22 21 22 21 21 19 19 19 18 18 18 19 19 19 19 19 18 18 18 19 19 19 19 19
28 27 26 23 21 21 21 20 19 18 18 20 21 22 22 23 23 23 23 24 24 24 24 24 24 23 23 22 22 21 21 20 19 19 19 18 19 18 18 18 18 19 19 18 18 19 20 20 19
25 23 24 23 20 20 19 20 18 18 18 19 18 21 21 20 21 21 22 22 23 23 22 23 23 23 22 22 21 21 21 20 19 19 19 19 19 19 18 18 19 19 19 19 18 18 18 19 19
26 24 21 20 23 20 19 18 19 20 19 18 21 21 21 21 20 20 20 21 21 21 22 22 22 22 22 21 21 21 20 20 20 20 19 19 19 19 18 18 19 19 19 19 19 18 18 19 19
Height
1521 1519 1517 1518 1530 1531 1536 1528 1518 1512 1509 1511 1506 1509 1516 1517 1519 1531 1525 1532 1537 1540 1543 1545 1548 1550 1552 1554 1555 1556 1558 1560 1561 1564 1565 1567 1570 1572 1574 1576 1577 1577 1578 1580 1581 1582 1583 1582 1582
1520 1518 1515 1520 1538 1546 1548 1524 1521 1510 1509 1507 1508 1509 1513 1521 1520 1522 1527 1534 1537 1540 1543 1545 1548 1551 1553 1554 1556 1558 1559 1562 1564 1565 1566 1568 1571 1573 1574 1576 1577 1578 1579 1580 1580 1581 1582 1583 1583
1523 1520 1516 1531 1542 1549 1546 1523 1511 1514 1511 1506 1509 1512 1515 1522 1524 1525 1530 1533 1538 1541 1544 1546 1549 1552 1554 1556 1558 1559 1560 1563 1565 1567 1568 1569 1571 1573 1575 1576 1577 1578 1579 1579 1580 1581 1581 1582 1583
1523 1523 1531 1539 1540 1542 1537 1522 1519 1513 1514 1512 1512 1517 1522 1523 1523 1525 1531 1535 1539 1542 1545 1547 1550 1553 1555 1557 1559 1560 1561 1564 1566 1568 1570 1571 1572 1573 1574 1576 1576 1578 1578 1579 1579 1580 1580 1581 1583
1522 1526 1536 1539 1538 1534 1533 1520 1520 1514 1511 1513 1511 1522 1523 1525 1527 1529 1531 1537 1540 1543 1546 1547 1551 1554 1556 1559 1560 1562 1563 1564 1566 1568 1570 1571 1572 1573 1574 1575 1576 1577 1577 1578 1578 1579 1580 1581 1583
1523 1522 1538 1541 1536 1518 1524 1524 1519 1512 1510 1510 1514 1519 1525 1526 1524 1529 1533 1536 1542 1544 1547 1549 1551 1554 1557 1559 1561 1563 1565 1565 1567 1568 1570 1572 1573 1573 1574 1575 1576 1576 1576 1576 1577 1577 1579 1580 1583
1523 1525 1529 1529 1522 1518 1510 1511 1514 1507 1510 1512 1512 1520 1527 1530 1528 1528 1534 1538 1541 1545 1547 1549 1552 1555 1558 1560 1561 1564 1566 1566 1568 1569 1570 1572 1573 1573 1574 1574 1575 1575 1575 1576 1576 1577 1578 1580 1581
1520 1522 1528 1526 1522 1517 1501 1501 1504 1505 1510 1512 1514 1519 1523 1525 1528 1530 1534 1539 1541 1544 1548 1549 1552 1555 1556 1559 1561 1564 1565 1566 1567 1569 1570 1572 1572 1573 1572 1573 1574 1575 1575 1575 1576 1576 1577 1578 1579
1518 1525 1530 1521 1516 1507 1498 1498 1504 1507 1506 1511 1512 1515 1521 1524 1527 1530 1535 1540 1541 1545 1548 1548 1552 1554 1556 1558 1560 1562 1564 1566 1567 1568 1570 1571 1572 1572 1571 1572 1573 1574 1574 1575 1575 1575 1576 1577 1578
1514 1527 1516 1505 1502 1498 1499 1501 1500 1507 1511 1513 1513 1517 1522 1522 1528 1530 1532 1536 1539 1542 1546 1548 1551 1554 1555 1557 1559 1561 1563 1564 1566 1567 1568 1571 1572 1571 1570 1570 1572 1573 1572 1574 1574 1575 1576 1576 1577
1510 1517 1504 1501 1499 1496 1499 1496 1498 1502 1511 1507 1508 1515 1519 1522 1526 1529 1533 1534 1536 1540 1544 1547 1550 1553 1554 1556 1558 1559 1561 1563 1564 1564 1566 1570 1571 1571 1571 1571 1571 1572 1572 1573 1574 1575 1577 1576 1576
1511 1504 1500 1499 1497 1497 1497 1496 1498 1498 1499 1502 1506 1509 1515 1520 1526 1529 1533 1536 1538 1540 1544 1546 1550 1552 1554 1556 1558 1560 1560 1561 1562 1564 1565 1568 1570 1570 1571 1571 1571 1571 1572 1573 1574 1576 1577 1576 1576
1502 1499 1498 1497 1496 1495 1496 1495 1496 1497 1498 1503 1508 1512 1516 1520 1523 1528 1533 1535 1537 1540 1543 1545 1548 1551 1554 1555 1557 1559 1560 1560 1562 1563 1566 1567 1568 1568 1571 1570 1571 1571 1572 1573 1574 1576 1577 1577 1577
1498 1497 1496 1495 1495 1495 1494 1494 1494 1502 1498 1502 1506 1508 1512 1518 1523 1528 1532 1535 1537 1539 1541 1544 1547 1550 1553 1554 1555 1558 1559 1560 1561 1562 1565 1566 1567 1568 1569 1570 1570 1571 1572 1573 1574 1576 1577 1578 1573
1498 1499 1497 1492 1493 1494 1495 1507 1510 1504 1499 1502 1506 1509 1512 1516 1521 1527 1532 1533 1536 1540 1542 1544 1547 1549 1550 1552 1554 1556 1558 1559 1560 1562 1563 1565 1566 1568 1569 1570 1569 1570 1572 1573 1574 1575 1575 1576 1575
1499 1502 1514 1493 1490 1493 1497 1524 1512 1507 1511 1513 1513 1516 1520 1519 1521 1525 1530 1534 1538 1540 1541 1544 1546 1548 1549 1550 1553 1555 1556 1557 1559 1560 1562 1564 1565 1566 1568 1569 1568 1569 1571 1573 1573 1572 1572 1572 1572
1509 1520 1512 1503 1493 1493 1498 1516 1517 1503 1509 1520 1521 1518 1518 1524 1522 1524 1528 1532 1536 1539 1540 1542 1544 1546 1548 1550 1553 1554 1555 1556 1558 1559 1559 1562 1563 1565 1567 1568 1568 1569 1571 1572 1571 1571 1571 1570 1571
1524 1517 1511 1511 1500 1500 1510 1517 1514 1506 1497 1507 1517 1515 1518 1524 1524 1522 1526 1531 1535 1538 1540 1541 1542 1545 1546 1549 1552 1553 1553 1553 1555 1556 1558 1559 1561 1564 1566 1566 1568 1571 1572 1573 1572 1570 1570 1571 1571
1509 1509 1511 1497 1498 1500 1505 1515 1508 1505 1503 1509 1512 1508 1510 1518 1523 1524 1528 1530 1533 1536 1538 1539 1541 1542 1544 1547 1549 1549 1550 1551 1552 1555 1556 1557 1560 1562 1565 1566 1569 1571 1572 1573 1573 1572 1572 1572 1572
1505 1506 1511 1500 1500 1500 1505 1518 1513 1508 1507 1506 1512 1513 1511 1517 1522 1527 1528 1530 1532 1534 1537 1539 1539 1540 1542 1544 1545 1546 1548 1549 1551 1552 1554 1556 1558 1561 1564 1566 1569 1571 1572 1573 1573 1573 1573 1573 1573
1498 1506 1505 1506 1502 1502 1506 1518 1518 1517 1516 1513 1514 1513 1514 1521 1523 1525 1527 1529 1531 1533 1535 1536 1538 1539 1540 1543 1544 1545 1547 1547 1548 1549 1552 1554 1556 1559 1562 1565 1568 1569 1570 1572 1573 1574 1574 1574 1575
1509 1490 1489 1496 1511 1525 1514 1544 1517 1518 1518 1516 1514 1512 1515 1518 1522 1523 1525 1528 1529 1531 1535 1536 1537 1538 1539 1540 1541 1543 1544 1544 1546 1548 1550 1553 1555 1558 1560 1563 1566 1568 1569 1570 1572 1573 1574 1574 1574
1496 1484 1490 1502 1518 1524 1531 1542 1525 1512 1511 1511 1512 1514 1515 1518 1521 1522 1524 1525 1525 1529 1532 1534 1536 1537 1538 1538 1539 1541 1542 1544 1546 1547 1548 1550 1553 1556 1559 1561 1564 1567 1568 1569 1571 1571 1573 1573 1573
1480 1485 1500 1507 1519 1553 1540 1543 1541 1523 1511 1507 1511 1512 1513 1516 1517 1521 1522 1524 1525 1527 1530 1532 1534 1535 1536 1536 1537 1538 1540 1542 1543 1545 1545 1547 1550 1553 1556 1559 1561 1564 1565 1567 1569 1570 1570 1570 1571
1482 1509 1541 1538 1545 1560 1544 1546 1543 1520 1510 1504 1505 1509 1512 1515 1516 1518 1519 1520 1522 1524 1525 1527 1530 1532 1534 1534 1535 1536 1538 1540 1541 1542 1544 1545 1547 1549 1552 1555 1558 1560 1562 1564 1566 1567 1568 1569 1569
1489 1505 1537 1545 1555 1561 1540 1557 1547 1518 1509 1502 1501 1505 1512 1515 1517 1518 1520 1520 1521 1522 1524 1526 1527 1530 1531 1532 1533 1534 1536 1538 1539 1540 1543 1544 1545 1548 1551 1554 1556 1558 1560 1561 1563 1565 1566 1567 1567
1489 1502 1491 1526 1533 1549 1554 1552 1537 1526 1514 1511 1508 1511 1515 1517 1519 1519 1521 1523 1522 1521 1521 1523 1525 1528 1530 1532 1532 1532 1533 1535 1536 1538 1540 1542 1544 1547 1550 1551 1553 1555 1557 1558 1560 1561 1562 1562 1564
1478 1477 1503 1513 1548 1551 1548 1546 1542 1530 1527 1523 1517 1513 1517 1516 1517 1520 1522 1522 1522 1523 1523 1524 1525 1526 1528 1529 1530 1532 1531 1532 1533 1535 1536 1538 1541 1544 1547 1549 1551 1552 1553 1555 1556 1557 1558 1558 1559
1489 1501 1497 1503 1522 1544 1558 1540 1521 1522 1524 1519 1529 1518 1520 1524 1521 1522 1521 1521 1521 1523 1523 1525 1526 1527 1528 1528 1530 1531 1530 1530 1530 1531 1532 1534 1537 1539 1542 1544 1547 1548 1549 1550 1552 1553 1555 1555 1556
1475 1494 1501 1524 1521 1525 1533 1541 1516 1509 1514 1522 1527 1520 1521 1524 1523 1524 1524 1523 1522 1521 1523 1523 1525 1528 1528 1529 1529 1528 1528 1527 1525 1526 1527 1529 1531 1533 1536 1539 1541 1542 1544 1545 1547 1548 1550 1550 1551
Wind_Speed
2 8 11 10 5 4 4 4 2 5 4 13 18 12 7 8 2 3 20 30 28 29 28 27 27 29 28 28 26 24 22 21 22 23 23 22 21 20 18 15 13 11 11 10 9 8 7 7 7
6 8 17 6 4 3 3 6 14 2 19 29 22 17 10 4 10 18 35 25 28 29 28 27 26 26 26 25 24 23 22 21 21 22 22 22 21 19 16 13 11 10 9 8 7 6 4 4 5
19 15 12 4 1 1 3 7 14 11 17 17 8 12 7 6 13 32 28 29 31 29 28 26 25 24 24 23 23 23 23 22 22 22 21 21 19 17 15 12 9 7 6 6 6 5 5 5 6
7 4 9 3 3 4 5 10 14 13 15 15 15 7 11 11 25 23 28 32 32 29 27 26 24 23 23 22 21 21 21 20 20 21 20 19 18 15 13 10 8 7 6 6 6 5 5 5 7
4 6 4 2 3 5 13 11 15 5 13 11 10 5 7 11 13 27 28 30 31 29 26 26 23 23 23 22 21 20 19 18 18 18 18 16 15 13 11 9 6 6 7 6 6 6 6 6 5
3 3 3 3 6 8 13 25 5 20 23 21 19 8 8 22 22 28 26 26 26 26 25 25 24 23 22 21 20 18 17 18 18 18 15 13 12 10 9 7 5 4 6 7 6 6 6 5 5
5 3 4 4 4 2 7 37 13 19 14 4 21 5 9 27 26 30 25 23 22 23 24 25 25 24 22 21 19 16 16 17 16 15 13 13 12 10 8 8 6 4 6 7 6 5 6 5 6
6 4 1 3 1 5 3 7 27 25 7 20 20 7 14 34 32 31 27 24 19 17 24 25 24 25 23 21 18 17 16 16 14 13 15 12 11 12 12 9 6 6 6 5 5 5 5 5 6
4 3 1 3 3 4 4 5 14 12 25 6 6 18 30 36 33 32 31 23 22 19 21 24 24 23 22 21 19 16 14 12 13 15 15 12 10 10 12 13 10 8 6 5 5 4 5 7 6
4 2 6 4 5 3 6 15 24 11 10 5 9 14 38 35 35 34 33 30 27 24 23 23 25 23 21 20 17 15 14 13 12 16 18 13 10 8 7 12 13 10 8 5 4 4 6 7 4
5 5 4 5 8 9 16 20 15 20 4 15 22 27 38 39 36 35 29 27 27 22 22 23 24 23 21 20 14 13 13 12 12 14 14 13 13 11 10 10 10 9 6 5 5 5 4 6 7
3 16 7 1 6 3 4 3 9 22 12 19 20 29 41 39 40 36 28 25 27 24 19 19 21 22 21 19 16 14 12 11 10 10 14 14 14 12 11 10 9 9 6 4 3 3 5 6 6
6 2 8 9 10 9 3 4 1 8 19 24 25 33 36 38 33 27 27 21 22 23 20 17 16 17 19 19 17 15 11 11 10 12 13 13 13 14 14 9 6 6 3 2 2 2 3 5 3
4 4 10 11 11 4 7 2 7 10 28 31 32 30 35 36 31 23 25 26 26 24 19 17 14 13 18 18 17 13 11 13 10 11 10 15 12 15 12 9 4 6 5 3 4 3 5 4 7
18 2 7 9 3 2 1 13 14 19 31 33 31 30 38 35 29 25 23 25 23 22 20 19 17 14 18 18 15 12 12 14 12 10 11 14 13 16 13 9 5 4 2 2 2 4 4 6 6
5 5 4 6 9 4 7 7 20 11 15 17 18 20 29 31 28 25 21 21 19 21 22 19 19 15 15 17 16 13 13 12 12 13 11 15 14 16 15 9 5 2 3 2 4 5 5 13 8
5 2 2 7 12 4 3 5 15 22 24 23 11 15 20 18 25 23 23 22 21 21 20 19 17 15 12 15 14 14 12 12 12 13 12 14 16 18 16 13 8 5 2 4 4 5 5 4 4
4 2 2 4 4 13 14 8 6 22 35 31 11 22 18 7 19 29 26 20 18 19 19 16 14 12 11 10 12 14 13 14 14 11 11 13 17 20 19 17 13 9 5 6 3 5 5 10 2
7 5 4 7 6 6 4 9 4 10 23 21 19 23 16 23 17 28 27 21 19 20 21 17 15 14 15 15 13 14 13 15 15 14 11 13 17 22 21 18 16 10 8 5 5 7 6 6 3
11 4 4 4 4 1 3 11 3 6 13 22 18 25 27 26 18 26 25 23 22 22 19 20 18 17 17 13 11 12 10 13 13 13 13 13 18 24 22 19 15 8 10 5 1 3 6 6 5
6 4 4 7 3 5 2 4 4 5 5 13 3 21 28 26 24 29 32 27 24 23 21 21 17 16 14 13 14 14 13 14 15 15 14 13 18 25 24 18 14 11 9 6 4 2 1 5 5
3 8 11 0 5 1 5 2 2 3 6 8 8 11 22 30 20 26 27 32 27 21 20 19 15 15 14 13 15 15 17 18 17 11 11 14 18 24 25 21 14 11 12 10 6 5 5 2 2
9 8 2 4 6 4 12 5 7 5 2 4 12 13 21 26 25 25 31 32 26 22 21 19 16 16 15 12 13 15 17 15 12 11 11 16 21 25 24 22 13 15 13 13 9 8 6 5 4
6 3 7 5 5 4 4 5 6 4 4 2 7 18 18 26 28 25 25 27 29 21 20 20 19 19 17 12 12 15 16 16 15 13 15 16 22 26 23 23 17 15 16 13 12 12 9 8 8
4 7 3 4 4 1 7 4 6 17 19 8 14 24 20 26 28 25 24 24 24 29 20 22 23 24 17 10 11 13 15 17 15 12 15 17 23 27 25 24 20 17 15 14 15 14 13 14 11
4 8 5 5 5 3 6 5 5 13 19 13 21 21 22 24 25 25 30 21 19 25 22 25 25 25 17 12 10 11 15 16 17 16 16 17 19 21 21 22 20 17 15 14 16 17 14 14 13
5 2 8 7 4 4 5 3 11 11 15 18 17 13 4 13 18 26 26 25 25 26 23 23 22 21 19 11 9 10 14 17 17 19 18 18 19 19 17 21 21 18 18 16 17 18 15 15 14
7 3 1 3 6 4 3 3 4 6 8 12 10 22 22 19 13 10 10 19 25 29 27 21 20 18 15 14 8 11 10 14 16 21 22 22 21 21 20 20 20 24 21 20 18 20 18 19 17
5 4 3 5 4 5 5 5 7 4 3 6 15 22 21 23 18 16 12 7 14 27 26 25 23 23 20 17 14 12 12 12 17 22 25 24 23 23 25 25 23 25 29 25 20 19 20 18 17
6 6 5 5 5 3 3 4 5 2 9 5 10 22 19 18 17 17 14 12 10 7 13 15 22 22 21 20 17 15 14 15 14 20 27 28 27 26 25 25 26 23 23 24 21 23 23 21 21
Wind_Direction
38 19 23 42 46 45 2 291 250 248 93 98 81 88 101 53 109 181 151 162 163 160 157 156 154 157 158 155 154 149 148 147 152 156 157 156 154 151 151 152 150 142 139 137 131 122 115 124 145
82 73 49 58 70 63 347 279 265 275 114 102 95 94 69 84 116 141 152 168 164 161 159 158 157 156 159 161 159 157 154 150 150 154 157 158 156 157 163 166 153 144 145 149 157 152 153 149 165
81 78 61 53 14 32 259 254 267 128 118 117 101 75 71 113 140 146 157 165 164 161 160 159 158 159 162 162 159 158 156 155 155 155 161 162 166 168 165 162 159 165 165 169 172 176 187 196 188
38 81 75 81 226 139 254 297 284 135 110 88 110 61 72 134 143 161 156 164 165 162 162 159 159 161 163 164 162 164 162 163 160 159 163 163 165 166 169 172 176 180 184 190 196 202 203 200 191
84 92 97 187 263 183 221 230 326 255 100 100 95 96 85 152 170 152 154 162 167 164 165 162 163 162 164 165 166 166 163 161 160 159 158 162 165 169 166 170 177 193 198 197 205 205 211 212 198
71 111 110 207 223 231 193 213 129 92 113 121 115 107 100 143 151 156 157 161 167 166 167 164 168 167 166 168 169 168 167 164 167 169 172 175 175 181 188 187 185 189 199 197 201 204 213 210 205
176 174 181 211 256 270 235 182 173 136 146 160 132 93 127 151 153 167 158 158 159 168 174 170 170 172 172 174 175 177 172 173 179 187 185 195 200 195 194 206 217 199 192 196 200 204 217 222 224
172 132 41 250 324 284 286 166 128 137 172 138 126 154 167 156 162 167 159 160 164 173 179 174 173 175 177 180 183 179 188 190 197 193 183 187 204 217 227 214 210 196 186 195 207 214 244 243 246
153 58 262 242 210 242 288 85 92 125 136 154 214 171 162 157 161 163 163 166 165 170 187 181 176 177 180 181 183 188 194 197 196 195 204 214 208 228 221 210 201 183 182 195 224 227 237 247 260
132 150 231 211 257 354 36 1 128 135 162 95 150 157 158 166 165 166 172 173 174 175 181 189 185 186 187 189 189 203 217 225 225 218 214 220 214 216 208 190 188 190 178 198 216 217 252 268 278
157 213 210 249 227 331 118 217 146 134 209 187 175 155 165 170 174 176 184 181 180 181 185 191 194 194 195 193 206 222 234 238 238 225 221 200 197 198 169 165 176 169 177 187 198 237 252 272 263
160 232 225 278 195 248 320 90 146 163 191 182 169 160 166 168 175 176 184 188 183 182 189 192 198 205 202 210 229 236 237 237 221 204 187 199 199 190 176 155 159 167 169 194 210 273 267 276 266
212 299 333 326 256 224 185 160 233 149 152 166 163 166 172 175 183 180 191 196 199 194 190 195 194 197 210 222 222 225 231 221 201 194 210 203 201 188 174 171 193 195 170 150 247 353 219 265 288
286 292 299 308 298 273 172 205 159 147 158 162 170 178 177 179 183 186 189 193 195 195 196 200 204 197 210 221 222 220 231 210 203 203 201 198 190 190 177 170 167 155 76 106 17 322 259 241 272
313 359 330 294 296 270 233 31 352 160 164 166 173 177 176 179 178 193 196 197 189 192 198 202 198 208 214 221 221 224 224 210 212 213 205 198 195 183 182 171 152 136 84 44 265 275 276 258 283
308 53 12 294 330 325 108 42 15 151 168 149 164 182 187 181 183 191 197 198 198 191 192 188 198 203 210 216 218 221 218 215 211 216 218 200 202 188 183 175 183 182 172 298 295 280 310 337 294
355 250 246 312 343 116 70 75 12 110 98 34 53 135 164 201 181 195 191 194 190 191 191 195 195 205 203 206 224 227 233 227 220 218 223 207 203 197 191 181 180 214 217 299 303 294 305 2 308
264 265 270 267 5 97 102 123 156 117 123 136 169 133 132 146 196 186 189 192 187 189 196 196 197 188 193 206 213 223 233 239 235 234 221 218 207 194 193 190 192 195 224 234 281 338 313 332 340
256 265 310 306 183 81 137 146 117 98 112 147 167 138 118 204 194 182 193 184 186 193 193 197 193 197 208 209 217 231 243 245 235 228 232 226 204 196 197 199 205 218 220 218 244 268 309 345 296
238 258 220 291 303 80 226 92 141 145 152 164 171 146 163 190 193 188 193 191 193 192 194 198 203 206 216 225 234 235 247 242 235 241 235 204 199 197 195 200 190 206 205 194 261 290 282 272 293
247 203 251 200 204 68 358 58 71 34 165 201 248 172 174 171 167 184 198 204 199 197 196 200 204 210 218 227 226 230 223 221 216 223 217 203 196 198 198 198 202 200 212 205 213 222 244 248 256
276 234 235 212 97 43 352 307 30 171 203 224 228 168 174 184 181 190 200 208 208 207 207 209 207 213 213 221 233 233 230 219 219 226 212 196 190 193 199 203 201 211 220 220 204 227 207 254 186
230 279 25 116 92 63 352 63 272 357 9 235 224 201 189 197 208 202 201 215 215 207 209 213 216 218 221 238 246 238 229 225 227 229 213 201 195 196 204 207 199 206 223 219 231 220 221 233 245
221 248 68 55 95 53 256 113 295 306 265 211 202 222 207 203 202 194 206 218 214 210 210 215 221 222 222 240 243 229 226 223 221 221 219 207 200 198 204 209 203 210 226 229 222 231 239 248 244
93 57 351 22 39 233 337 39 274 298 314 215 188 210 211 200 196 198 194 206 219 215 218 217 220 219 224 234 243 228 221 218 225 225 217 213 208 204 208 207 207 208 220 238 238 238 244 242 253
207 152 157 194 167 160 333 6 272 296 313 201 182 192 204 210 215 214 205 217 221 211 225 219 221 219 226 234 245 227 218 219 227 232 219 208 203 204 206 212 218 223 227 241 245 239 244 245 243
275 187 193 106 42 101 154 194 275 280 33 31 101 126 169 232 233 227 219 221 218 217 222 219 223 225 227 243 235 234 222 218 223 224 223 213 210 211 214 222 227 228 237 243 240 242 247 247 252
171 189 301 359 138 141 141 226 212 322 347 13 40 86 87 89 116 172 219 240 220 215 221 225 233 235 237 242 256 237 234 227 224 220 224 222 221 221 224 230 235 235 231 235 237 240 250 248 254
33 15 44 122 143 148 150 227 198 164 298 84 311 88 86 80 82 88 94 109 218 225 230 232 232 236 241 249 250 250 236 231 229 224 224 226 225 228 235 241 247 245 251 235 228 230 238 241 241
106 145 112 106 285 81 112 253 214 202 196 225 264 99 91 85 75 70 63 71 92 140 209 230 240 244 255 254 254 271 256 243 239 235 228 224 230 231 240 243 246 251 247 231 237 235 235 240 244